Year,Month,Day,Hour,Minute,Value (Times are PST for temperature in C)
2011,07,27,00,00,14.20
2011,07,27,00,01,14.20
2011,07,27,00,02,14.20
2011,07,27,00,03,14.20
2011,07,27,00,04,14.20
2011,07,27,00,05,14.20
2011,07,27,00,06,14.20
2011,07,27,00,07,14.10
2011,07,27,00,08,14.10
2011,07,27,00,09,14.10
2011,07,27,00,10,14.10
2011,07,27,00,11,14.10
2011,07,27,00,12,14.10
2011,07,27,00,13,14.10
2011,07,27,00,14,14.10
2011,07,27,00,15,14.10
2011,07,27,00,16,14.10
2011,07,27,00,17,14.10
2011,07,27,00,18,14.10
2011,07,27,00,19,14.10
2011,07,27,00,20,14.10
2011,07,27,00,21,14.10
2011,07,27,00,22,14.10
2011,07,27,00,23,14.10
2011,07,27,00,24,14.10
2011,07,27,00,25,14.10
2011,07,27,00,26,14.00
2011,07,27,00,27,14.00
2011,07,27,00,28,14.00
2011,07,27,00,29,14.00
2011,07,27,00,30,13.90
2011,07,27,00,31,13.90
2011,07,27,00,32,13.90
2011,07,27,00,33,13.90
2011,07,27,00,34,13.90
2011,07,27,00,35,13.80
2011,07,27,00,36,13.80
2011,07,27,00,37,13.80
2011,07,27,00,38,13.80
2011,07,27,00,39,13.80
2011,07,27,00,40,13.80
2011,07,27,00,41,13.80
2011,07,27,00,42,13.80
2011,07,27,00,43,13.80
2011,07,27,00,44,13.80
2011,07,27,00,45,13.80
2011,07,27,00,46,13.80
2011,07,27,00,47,13.80
2011,07,27,00,48,13.70
2011,07,27,00,49,13.70
2011,07,27,00,50,13.70
2011,07,27,00,51,13.70
2011,07,27,00,52,13.70
2011,07,27,00,53,13.70
2011,07,27,00,54,13.70
2011,07,27,00,55,13.70
2011,07,27,00,56,13.70
2011,07,27,00,57,13.70
2011,07,27,00,58,13.70
2011,07,27,00,59,13.70
2011,07,27,01,00,13.70
2011,07,27,01,01,13.70
2011,07,27,01,02,13.70
2011,07,27,01,03,13.70
2011,07,27,01,04,13.70
2011,07,27,01,05,13.70
2011,07,27,01,06,13.70
2011,07,27,01,07,13.60
2011,07,27,01,08,13.60
2011,07,27,01,09,13.60
2011,07,27,01,10,13.60
2011,07,27,01,11,13.60
2011,07,27,01,12,13.60
2011,07,27,01,13,13.60
2011,07,27,01,14,13.60
2011,07,27,01,15,13.60
2011,07,27,01,16,13.60
2011,07,27,01,17,13.60
2011,07,27,01,18,13.60
2011,07,27,01,19,13.60
2011,07,27,01,20,13.60
2011,07,27,01,21,13.60
2011,07,27,01,22,13.60
2011,07,27,01,23,13.70
2011,07,27,01,24,13.70
2011,07,27,01,25,13.70
2011,07,27,01,26,13.70
2011,07,27,01,27,13.70
2011,07,27,01,28,13.70
2011,07,27,01,29,13.70
2011,07,27,01,30,13.70
2011,07,27,01,31,13.70
2011,07,27,01,32,13.70
2011,07,27,01,33,13.70
2011,07,27,01,34,13.70
2011,07,27,01,35,13.70
2011,07,27,01,36,13.80
2011,07,27,01,37,13.80
2011,07,27,01,38,13.80
2011,07,27,01,39,13.90
2011,07,27,01,40,13.90
2011,07,27,01,41,14.00
2011,07,27,01,42,14.10
2011,07,27,01,43,14.20
2011,07,27,01,44,14.30
2011,07,27,01,45,14.40
2011,07,27,01,46,14.50
2011,07,27,01,47,14.50
2011,07,27,01,48,14.60
2011,07,27,01,49,14.60
2011,07,27,01,50,14.70
2011,07,27,01,51,14.70
2011,07,27,01,52,14.80
2011,07,27,01,53,14.80
2011,07,27,01,54,14.80
2011,07,27,01,55,14.90
2011,07,27,01,56,14.90
2011,07,27,01,57,15.00
2011,07,27,01,58,15.00
2011,07,27,01,59,15.00
2011,07,27,02,00,15.00
2011,07,27,02,01,15.00
2011,07,27,02,02,15.00
2011,07,27,02,03,15.00
2011,07,27,02,04,15.00
2011,07,27,02,05,15.00
2011,07,27,02,06,15.00
2011,07,27,02,07,15.00
2011,07,27,02,08,15.00
2011,07,27,02,09,15.00
2011,07,27,02,10,15.00
2011,07,27,02,11,15.00
2011,07,27,02,12,15.00
2011,07,27,02,13,15.00
2011,07,27,02,14,15.00
2011,07,27,02,15,15.00
2011,07,27,02,16,15.00
2011,07,27,02,17,15.00
2011,07,27,02,18,15.00
2011,07,27,02,19,15.00
2011,07,27,02,20,15.00
2011,07,27,02,21,15.00
2011,07,27,02,22,15.00
2011,07,27,02,23,15.00
2011,07,27,02,24,15.00
2011,07,27,02,25,15.00
2011,07,27,02,26,15.00
2011,07,27,02,27,15.00
2011,07,27,02,28,15.00
2011,07,27,02,29,15.00
2011,07,27,02,30,15.00
2011,07,27,02,31,15.00
2011,07,27,02,32,15.00
2011,07,27,02,33,15.00
2011,07,27,02,34,15.00
2011,07,27,02,35,15.00
2011,07,27,02,36,15.00
2011,07,27,02,37,15.00
2011,07,27,02,38,14.90
2011,07,27,02,39,14.90
2011,07,27,02,40,14.90
2011,07,27,02,41,14.90
2011,07,27,02,42,14.90
2011,07,27,02,43,14.90
2011,07,27,02,44,14.90
2011,07,27,02,45,14.90
2011,07,27,02,46,14.90
2011,07,27,02,47,14.80
2011,07,27,02,48,14.80
2011,07,27,02,49,14.80
2011,07,27,02,50,14.80
2011,07,27,02,51,14.80
2011,07,27,02,52,14.80
2011,07,27,02,53,14.80
2011,07,27,02,54,14.80
2011,07,27,02,55,14.80
2011,07,27,02,56,14.80
2011,07,27,02,57,14.80
2011,07,27,02,58,14.80
2011,07,27,02,59,14.80
2011,07,27,03,00,14.80
2011,07,27,03,01,14.80
2011,07,27,03,02,14.80
2011,07,27,03,06,14.80
2011,07,27,03,07,14.80
2011,07,27,03,08,14.80
2011,07,27,03,09,14.80
2011,07,27,03,10,14.80
2011,07,27,03,11,14.80
2011,07,27,03,12,14.80
2011,07,27,03,13,14.80
2011,07,27,03,14,14.80
2011,07,27,03,15,14.80
2011,07,27,03,16,14.80
2011,07,27,03,17,14.80
2011,07,27,03,18,14.80
2011,07,27,03,19,14.80
2011,07,27,03,20,14.80
2011,07,27,03,21,14.80
2011,07,27,03,22,14.80
2011,07,27,03,23,14.80
2011,07,27,03,24,14.80
2011,07,27,03,25,14.80
2011,07,27,03,26,14.80
2011,07,27,03,27,14.80
2011,07,27,03,28,14.80
2011,07,27,03,29,14.80
2011,07,27,03,30,14.70
2011,07,27,03,31,14.70
2011,07,27,03,32,14.70
2011,07,27,03,33,14.70
2011,07,27,03,34,14.70
2011,07,27,03,35,14.70
2011,07,27,03,36,14.70
2011,07,27,03,37,14.70
2011,07,27,03,38,14.70
2011,07,27,03,39,14.70
2011,07,27,03,40,14.70
2011,07,27,03,41,14.70
2011,07,27,03,42,14.70
2011,07,27,03,43,14.70
2011,07,27,03,44,14.70
2011,07,27,03,45,14.70
2011,07,27,03,46,14.70
2011,07,27,03,47,14.70
2011,07,27,03,48,14.70
2011,07,27,03,49,14.70
2011,07,27,03,50,14.70
2011,07,27,03,51,14.70
2011,07,27,03,52,14.70
2011,07,27,03,53,14.60
2011,07,27,03,54,14.60
2011,07,27,03,55,14.60
2011,07,27,03,56,14.60
2011,07,27,03,57,14.60
2011,07,27,03,58,14.60
2011,07,27,03,59,14.60
2011,07,27,04,00,14.60
2011,07,27,04,01,14.60
2011,07,27,04,02,14.60
2011,07,27,04,03,14.60
2011,07,27,04,04,14.60
2011,07,27,04,05,14.60
2011,07,27,04,06,14.60
2011,07,27,04,07,14.60
2011,07,27,04,08,14.60
2011,07,27,04,09,14.60
2011,07,27,04,10,14.60
2011,07,27,04,11,14.60
2011,07,27,04,12,14.60
2011,07,27,04,13,14.60
2011,07,27,04,14,14.60
2011,07,27,04,15,14.60
2011,07,27,04,16,14.60
2011,07,27,04,17,14.60
2011,07,27,04,18,14.60
2011,07,27,04,19,14.60
2011,07,27,04,20,14.60
2011,07,27,04,21,14.60
2011,07,27,04,22,14.60
2011,07,27,04,23,14.60
2011,07,27,04,24,14.60
2011,07,27,04,25,14.60
2011,07,27,04,26,14.60
2011,07,27,04,27,14.60
2011,07,27,04,28,14.60
2011,07,27,04,29,14.60
2011,07,27,04,30,14.50
2011,07,27,04,31,14.50
2011,07,27,04,32,14.50
2011,07,27,04,33,14.50
2011,07,27,04,34,14.50
2011,07,27,04,35,14.50
2011,07,27,04,36,14.50
2011,07,27,04,37,14.50
2011,07,27,04,38,14.50
2011,07,27,04,39,14.50
2011,07,27,04,40,14.50
2011,07,27,04,41,14.50
2011,07,27,04,42,14.50
2011,07,27,04,43,14.50
2011,07,27,04,44,14.50
2011,07,27,04,45,14.50
2011,07,27,04,46,14.40
2011,07,27,04,47,14.40
2011,07,27,04,48,14.40
2011,07,27,04,49,14.40
2011,07,27,04,50,14.40
2011,07,27,04,51,14.40
2011,07,27,04,52,14.40
2011,07,27,04,53,14.40
2011,07,27,04,54,14.40
2011,07,27,04,55,14.40
2011,07,27,04,56,14.40
2011,07,27,04,57,14.40
2011,07,27,04,58,14.40
2011,07,27,04,59,14.40
2011,07,27,05,00,14.40
2011,07,27,05,01,14.30
2011,07,27,05,02,14.30
2011,07,27,05,03,14.30
2011,07,27,05,04,14.30
2011,07,27,05,05,14.30
2011,07,27,05,06,14.30
2011,07,27,05,07,14.30
2011,07,27,05,08,14.30
2011,07,27,05,09,14.30
2011,07,27,05,10,14.30
2011,07,27,05,11,14.30
2011,07,27,05,12,14.30
2011,07,27,05,13,14.30
2011,07,27,05,14,14.30
2011,07,27,05,15,14.30
2011,07,27,05,16,14.30
2011,07,27,05,17,14.30
2011,07,27,05,18,14.30
2011,07,27,05,19,14.30
2011,07,27,05,20,14.30
2011,07,27,05,21,14.30
2011,07,27,05,22,14.30
2011,07,27,05,23,14.30
2011,07,27,05,24,14.20
2011,07,27,05,25,14.20
2011,07,27,05,26,14.20
2011,07,27,05,27,14.20
2011,07,27,05,28,14.20
2011,07,27,05,29,14.20
2011,07,27,05,30,14.20
2011,07,27,05,31,14.20
2011,07,27,05,32,14.20
2011,07,27,05,33,14.20
2011,07,27,05,34,14.20
2011,07,27,05,35,14.10
2011,07,27,05,36,14.10
2011,07,27,05,37,14.10
2011,07,27,05,38,14.10
2011,07,27,05,39,14.10
2011,07,27,05,40,14.10
2011,07,27,05,41,14.10
2011,07,27,05,42,14.10
2011,07,27,05,43,14.10
2011,07,27,05,44,14.10
2011,07,27,05,45,14.10
2011,07,27,05,46,14.10
2011,07,27,05,47,14.10
2011,07,27,05,48,14.10
2011,07,27,05,49,14.00
2011,07,27,05,50,14.10
2011,07,27,05,51,14.00
2011,07,27,05,52,14.00
2011,07,27,05,53,14.00
2011,07,27,05,54,14.00
2011,07,27,05,55,14.00
2011,07,27,05,56,14.00
2011,07,27,05,57,14.00
2011,07,27,05,58,14.00
2011,07,27,05,59,14.00
2011,07,27,06,00,14.00
2011,07,27,06,01,14.00
2011,07,27,06,02,14.00
2011,07,27,06,03,13.90
2011,07,27,06,04,13.90
2011,07,27,06,05,13.90
2011,07,27,06,06,13.90
2011,07,27,06,07,13.90
2011,07,27,06,08,13.90
2011,07,27,06,09,13.90
2011,07,27,06,10,13.90
2011,07,27,06,11,13.90
2011,07,27,06,12,13.90
2011,07,27,06,13,13.90
2011,07,27,06,14,13.90
2011,07,27,06,15,13.90
2011,07,27,06,16,13.80
2011,07,27,06,17,13.80
2011,07,27,06,18,13.80
2011,07,27,06,19,13.80
2011,07,27,06,20,13.90
2011,07,27,06,21,13.80
2011,07,27,06,22,13.80
2011,07,27,06,23,13.90
2011,07,27,06,24,13.90
2011,07,27,06,25,13.90
2011,07,27,06,26,13.90
2011,07,27,06,27,13.90
2011,07,27,06,28,13.90
2011,07,27,06,29,13.90
2011,07,27,06,30,13.90
2011,07,27,06,31,13.90
2011,07,27,06,32,13.90
2011,07,27,06,33,13.90
2011,07,27,06,34,13.90
2011,07,27,06,35,13.90
2011,07,27,06,36,13.90
2011,07,27,06,37,13.90
2011,07,27,06,38,13.90
2011,07,27,06,39,13.90
2011,07,27,06,40,13.90
2011,07,27,06,41,13.90
2011,07,27,06,42,13.90
2011,07,27,06,43,13.90
2011,07,27,06,44,13.90
2011,07,27,06,45,13.90
2011,07,27,06,46,13.90
2011,07,27,06,47,13.90
2011,07,27,06,48,13.90
2011,07,27,06,49,13.80
2011,07,27,06,50,13.80
2011,07,27,06,51,13.80
2011,07,27,06,52,13.80
2011,07,27,06,53,13.80
2011,07,27,06,54,13.80
2011,07,27,06,55,13.80
2011,07,27,06,56,13.80
2011,07,27,06,57,13.80
2011,07,27,06,58,13.80
2011,07,27,06,59,13.80
2011,07,27,07,00,13.80
2011,07,27,07,01,13.80
2011,07,27,07,02,13.80
2011,07,27,07,03,13.80
2011,07,27,07,04,13.80
2011,07,27,07,05,13.80
2011,07,27,07,06,13.80
2011,07,27,07,07,13.80
2011,07,27,07,08,13.80
2011,07,27,07,09,13.80
2011,07,27,07,10,13.80
2011,07,27,07,11,13.80
2011,07,27,07,12,13.80
2011,07,27,07,13,13.80
2011,07,27,07,14,13.80
2011,07,27,07,15,13.80
2011,07,27,07,16,13.80
2011,07,27,07,17,13.80
2011,07,27,07,18,13.80
2011,07,27,07,19,13.80
2011,07,27,07,20,13.80
2011,07,27,07,21,13.80
2011,07,27,07,22,13.80
2011,07,27,07,23,13.90
2011,07,27,07,24,13.90
2011,07,27,07,25,13.90
2011,07,27,07,26,13.90
2011,07,27,07,27,13.90
2011,07,27,07,28,13.90
2011,07,27,07,29,13.90
2011,07,27,07,30,13.90
2011,07,27,07,31,13.90
2011,07,27,07,32,13.90
2011,07,27,07,33,13.90
2011,07,27,07,34,13.90
2011,07,27,07,35,13.90
2011,07,27,07,36,13.90
2011,07,27,07,37,13.90
2011,07,27,07,38,13.90
2011,07,27,07,39,13.90
2011,07,27,07,40,14.00
2011,07,27,07,41,14.00
2011,07,27,07,42,14.00
2011,07,27,07,43,14.00
2011,07,27,07,44,14.00
2011,07,27,07,45,14.00
2011,07,27,07,46,14.00
2011,07,27,07,47,14.00
2011,07,27,07,48,14.00
2011,07,27,07,49,14.00
2011,07,27,07,50,14.00
2011,07,27,07,51,14.00
2011,07,27,07,52,14.00
2011,07,27,07,53,14.00
2011,07,27,07,54,14.10
2011,07,27,07,55,14.10
2011,07,27,07,56,14.10
2011,07,27,07,57,14.10
2011,07,27,07,58,14.10
2011,07,27,07,59,14.10
2011,07,27,08,00,14.10
2011,07,27,08,01,14.10
2011,07,27,08,02,14.20
2011,07,27,08,03,14.20
2011,07,27,08,04,14.20
2011,07,27,08,05,14.20
2011,07,27,08,06,14.20
2011,07,27,08,07,14.20
2011,07,27,08,08,14.30
2011,07,27,08,09,14.30
2011,07,27,08,10,14.30
2011,07,27,08,11,14.30
2011,07,27,08,12,14.30
2011,07,27,08,13,14.30
2011,07,27,08,14,14.30
2011,07,27,08,15,14.30
2011,07,27,08,16,14.30
2011,07,27,08,17,14.30
2011,07,27,08,18,14.30
2011,07,27,08,19,14.30
2011,07,27,08,20,14.30
2011,07,27,08,21,14.30
2011,07,27,08,22,14.30
2011,07,27,08,23,14.40
2011,07,27,08,24,14.40
2011,07,27,08,25,14.40
2011,07,27,08,26,14.40
2011,07,27,08,27,14.40
2011,07,27,08,28,14.40
2011,07,27,08,29,14.40
2011,07,27,08,30,14.50
2011,07,27,08,31,14.50
2011,07,27,08,32,14.50
2011,07,27,08,33,14.60
2011,07,27,08,34,14.60
2011,07,27,08,35,14.60
2011,07,27,08,36,14.60
2011,07,27,08,37,14.60
2011,07,27,08,38,14.60
2011,07,27,08,39,14.60
2011,07,27,08,40,14.60
2011,07,27,08,41,14.60
2011,07,27,08,42,14.60
2011,07,27,08,43,14.60
2011,07,27,08,44,14.60
2011,07,27,08,45,14.60
2011,07,27,08,46,14.60
2011,07,27,08,47,14.60
2011,07,27,08,48,14.70
2011,07,27,08,49,14.70
2011,07,27,08,50,14.80
2011,07,27,08,51,14.90
2011,07,27,08,52,15.00
2011,07,27,08,53,15.00
2011,07,27,08,54,15.00
2011,07,27,08,55,15.00
2011,07,27,08,56,15.00
2011,07,27,08,57,15.00
2011,07,27,08,58,15.00
2011,07,27,08,59,15.10
2011,07,27,09,00,15.10
2011,07,27,09,01,15.20
2011,07,27,09,02,15.10
2011,07,27,09,03,15.10
2011,07,27,09,04,15.10
2011,07,27,09,05,15.00
2011,07,27,09,06,15.00
2011,07,27,09,07,15.00
2011,07,27,09,08,15.00
2011,07,27,09,09,15.00
2011,07,27,09,10,15.00
2011,07,27,09,11,15.10
2011,07,27,09,12,15.20
2011,07,27,09,13,15.30
2011,07,27,09,14,15.30
2011,07,27,09,15,15.40
2011,07,27,09,16,15.40
2011,07,27,09,17,15.40
2011,07,27,09,18,15.50
2011,07,27,09,19,15.40
2011,07,27,09,20,15.40
2011,07,27,09,21,15.40
2011,07,27,09,22,15.40
2011,07,27,09,23,15.40
2011,07,27,09,24,15.40
2011,07,27,09,25,15.40
2011,07,27,09,26,15.30
2011,07,27,09,27,15.30
2011,07,27,09,28,15.30
2011,07,27,09,29,15.30
2011,07,27,09,30,15.30
2011,07,27,09,31,15.30
2011,07,27,09,32,15.30
2011,07,27,09,33,15.30
2011,07,27,09,34,15.20
2011,07,27,09,35,15.30
2011,07,27,09,36,15.30
2011,07,27,09,37,15.30
2011,07,27,09,38,15.30
2011,07,27,09,39,15.30
2011,07,27,09,40,15.30
2011,07,27,09,41,15.30
2011,07,27,09,42,15.40
2011,07,27,09,43,15.40
2011,07,27,09,44,15.40
2011,07,27,09,45,15.40
2011,07,27,09,46,15.40
2011,07,27,09,47,15.40
2011,07,27,09,48,15.40
2011,07,27,09,49,15.50
2011,07,27,09,50,15.50
2011,07,27,09,51,15.50
2011,07,27,09,52,15.60
2011,07,27,09,53,15.60
2011,07,27,09,54,15.60
2011,07,27,09,55,15.60
2011,07,27,09,56,15.60
2011,07,27,09,57,15.70
2011,07,27,09,58,15.70
2011,07,27,09,59,15.80
2011,07,27,10,00,15.80
2011,07,27,10,01,15.80
2011,07,27,10,02,15.90
2011,07,27,10,03,15.90
2011,07,27,10,04,16.00
2011,07,27,10,05,16.00
2011,07,27,10,06,16.00
2011,07,27,10,07,16.10
2011,07,27,10,08,16.10
2011,07,27,10,09,16.10
2011,07,27,10,10,16.10
2011,07,27,10,11,16.10
2011,07,27,10,12,16.20
2011,07,27,10,13,16.20
2011,07,27,10,14,16.30
2011,07,27,10,15,16.30
2011,07,27,10,16,16.30
2011,07,27,10,17,16.40
2011,07,27,10,18,16.40
2011,07,27,10,19,16.40
2011,07,27,10,20,16.40
2011,07,27,10,21,16.50
2011,07,27,10,22,16.60
2011,07,27,10,23,16.60
2011,07,27,10,24,16.60
2011,07,27,10,25,16.70
2011,07,27,10,26,16.70
2011,07,27,10,27,16.70
2011,07,27,10,28,16.80
2011,07,27,10,29,16.80
2011,07,27,10,30,16.80
2011,07,27,10,31,16.80
2011,07,27,10,32,16.80
2011,07,27,10,33,16.90
2011,07,27,10,34,17.00
2011,07,27,10,35,17.00
2011,07,27,10,36,17.00
2011,07,27,10,37,17.00
2011,07,27,10,38,17.00
2011,07,27,10,39,17.10
2011,07,27,10,40,17.10
2011,07,27,10,41,17.20
2011,07,27,10,42,17.30
2011,07,27,10,43,17.30
2011,07,27,10,44,17.20
2011,07,27,10,45,17.00
2011,07,27,10,46,17.00
2011,07,27,10,47,16.90
2011,07,27,10,48,16.90
2011,07,27,10,49,16.90
2011,07,27,10,50,17.00
2011,07,27,10,51,17.00
2011,07,27,10,52,17.00
2011,07,27,10,53,17.00
2011,07,27,10,54,17.10
2011,07,27,10,55,17.10
2011,07,27,10,56,17.10
2011,07,27,10,57,17.10
2011,07,27,10,58,17.20
2011,07,27,10,59,17.20
2011,07,27,11,00,17.20
2011,07,27,11,01,17.30
2011,07,27,11,02,17.30
2011,07,27,11,03,17.40
2011,07,27,11,04,17.40
2011,07,27,11,05,17.40
2011,07,27,11,06,17.40
2011,07,27,11,07,17.40
2011,07,27,11,08,17.40
2011,07,27,11,09,17.40
2011,07,27,11,10,17.50
2011,07,27,11,11,17.40
2011,07,27,11,12,17.30
2011,07,27,11,13,17.30
2011,07,27,11,14,17.30
2011,07,27,11,15,17.10
2011,07,27,11,16,17.10
2011,07,27,11,17,17.10
2011,07,27,11,18,17.10
2011,07,27,11,19,17.10
2011,07,27,11,20,17.10
2011,07,27,11,21,17.10
2011,07,27,11,22,17.10
2011,07,27,11,23,17.20
2011,07,27,11,24,17.30
2011,07,27,11,25,17.40
2011,07,27,11,26,17.40
2011,07,27,11,27,17.40
2011,07,27,11,28,17.40
2011,07,27,11,29,17.50
2011,07,27,11,30,17.50
2011,07,27,11,31,17.60
2011,07,27,11,32,17.60
2011,07,27,11,33,17.70
2011,07,27,11,34,17.70
2011,07,27,11,35,17.70
2011,07,27,11,36,17.80
2011,07,27,11,37,17.80
2011,07,27,11,38,17.90
2011,07,27,11,39,18.00
2011,07,27,11,40,18.00
2011,07,27,11,41,17.90
2011,07,27,11,42,17.90
2011,07,27,11,43,17.90
2011,07,27,11,44,17.90
2011,07,27,11,45,17.90
2011,07,27,11,46,17.90
2011,07,27,11,47,17.90
2011,07,27,11,48,17.90
2011,07,27,11,49,17.90
2011,07,27,11,50,18.00
2011,07,27,11,51,18.00
2011,07,27,11,52,18.10
2011,07,27,11,53,18.10
2011,07,27,11,54,18.00
2011,07,27,11,55,18.00
2011,07,27,11,56,17.90
2011,07,27,11,57,17.90
2011,07,27,11,58,17.80
2011,07,27,11,59,17.80
2011,07,27,12,00,17.80
2011,07,27,12,01,17.90
2011,07,27,12,02,17.90
2011,07,27,12,03,18.00
2011,07,27,12,04,18.00
2011,07,27,12,05,18.00
2011,07,27,12,06,18.00
2011,07,27,12,07,18.10
2011,07,27,12,08,18.20
2011,07,27,12,09,18.20
2011,07,27,12,10,18.30
2011,07,27,12,11,18.30
2011,07,27,12,12,18.40
2011,07,27,12,13,18.30
2011,07,27,12,14,18.30
2011,07,27,12,15,18.30
2011,07,27,12,16,18.30
2011,07,27,12,17,18.40
2011,07,27,12,18,18.40
2011,07,27,12,19,18.40
2011,07,27,12,20,18.50
2011,07,27,12,21,18.60
2011,07,27,12,22,18.70
2011,07,27,12,23,18.60
2011,07,27,12,24,18.60
2011,07,27,12,25,18.60
2011,07,27,12,26,18.60
2011,07,27,12,27,18.40
2011,07,27,12,28,18.30
2011,07,27,12,29,18.30
2011,07,27,12,30,18.30
2011,07,27,12,31,18.30
2011,07,27,12,32,18.30
2011,07,27,12,33,18.30
2011,07,27,12,34,18.30
2011,07,27,12,35,18.30
2011,07,27,12,36,18.40
2011,07,27,12,37,18.40
2011,07,27,12,38,18.40
2011,07,27,12,39,18.50
2011,07,27,12,40,18.50
2011,07,27,12,41,18.50
2011,07,27,12,42,18.60
2011,07,27,12,43,18.70
2011,07,27,12,44,18.80
2011,07,27,12,45,18.80
2011,07,27,12,46,18.90
2011,07,27,12,47,18.90
2011,07,27,12,48,19.10
2011,07,27,12,49,19.20
2011,07,27,12,50,19.20
2011,07,27,12,51,19.30
2011,07,27,12,52,19.20
2011,07,27,12,53,19.10
2011,07,27,12,54,19.00
2011,07,27,12,55,18.90
2011,07,27,12,56,18.90
2011,07,27,12,57,18.90
2011,07,27,12,58,18.90
2011,07,27,12,59,18.90
2011,07,27,13,00,18.90
2011,07,27,13,01,18.90
2011,07,27,13,02,18.90
2011,07,27,13,03,19.00
2011,07,27,13,04,19.10
2011,07,27,13,05,19.10
2011,07,27,13,06,19.10
2011,07,27,13,07,19.10
2011,07,27,13,08,19.10
2011,07,27,13,09,19.10
2011,07,27,13,10,19.10
2011,07,27,13,11,19.20
2011,07,27,13,12,19.30
2011,07,27,13,13,19.30
2011,07,27,13,14,19.30
2011,07,27,13,15,19.30
2011,07,27,13,16,19.20
2011,07,27,13,17,19.20
2011,07,27,13,18,19.10
2011,07,27,13,19,19.10
2011,07,27,13,20,19.10
2011,07,27,13,21,19.20
2011,07,27,13,22,19.20
2011,07,27,13,23,19.20
2011,07,27,13,24,19.20
2011,07,27,13,25,19.20
2011,07,27,13,26,19.20
2011,07,27,13,27,19.20
2011,07,27,13,28,19.20
2011,07,27,13,29,19.20
2011,07,27,13,30,19.20
2011,07,27,13,31,19.20
2011,07,27,13,32,19.10
2011,07,27,13,33,19.10
2011,07,27,13,34,19.10
2011,07,27,13,35,19.10
2011,07,27,13,36,19.10
2011,07,27,13,37,19.10
2011,07,27,13,38,19.10
2011,07,27,13,39,19.20
2011,07,27,13,40,19.20
2011,07,27,13,41,19.30
2011,07,27,13,42,19.40
2011,07,27,13,43,19.40
2011,07,27,13,44,19.50
2011,07,27,13,45,19.60
2011,07,27,13,46,19.70
2011,07,27,13,47,19.70
2011,07,27,13,48,19.70
2011,07,27,13,49,19.70
2011,07,27,13,50,19.70
2011,07,27,13,51,19.80
2011,07,27,13,52,19.80
2011,07,27,13,53,19.80
2011,07,27,13,54,19.70
2011,07,27,13,55,19.60
2011,07,27,13,56,19.60
2011,07,27,13,57,19.60
2011,07,27,13,58,19.80
2011,07,27,13,59,19.80
2011,07,27,14,00,19.80
2011,07,27,14,01,19.80
2011,07,27,14,02,19.90
2011,07,27,14,03,19.80
2011,07,27,14,04,19.80
2011,07,27,14,05,19.80
2011,07,27,14,06,19.80
2011,07,27,14,07,19.80
2011,07,27,14,08,19.70
2011,07,27,14,09,19.60
2011,07,27,14,10,19.60
2011,07,27,14,11,19.60
2011,07,27,14,12,19.70
2011,07,27,14,13,19.70
2011,07,27,14,14,19.80
2011,07,27,14,15,19.80
2011,07,27,14,16,19.80
2011,07,27,14,17,19.90
2011,07,27,14,18,19.90
2011,07,27,14,19,19.90
2011,07,27,14,20,19.90
2011,07,27,14,21,19.80
2011,07,27,14,22,19.80
2011,07,27,14,23,19.90
2011,07,27,14,24,20.00
2011,07,27,14,25,20.00
2011,07,27,14,26,20.00
2011,07,27,14,27,20.10
2011,07,27,14,28,20.10
2011,07,27,14,29,20.20
2011,07,27,14,30,20.30
2011,07,27,14,31,20.40
2011,07,27,14,32,20.40
2011,07,27,14,33,20.40
2011,07,27,14,34,20.40
2011,07,27,14,35,20.40
2011,07,27,14,36,20.40
2011,07,27,14,37,20.40
2011,07,27,14,38,20.40
2011,07,27,14,39,20.30
2011,07,27,14,40,20.30
2011,07,27,14,41,20.30
2011,07,27,14,42,20.30
2011,07,27,14,43,20.30
2011,07,27,14,44,20.30
2011,07,27,14,45,20.40
2011,07,27,14,46,20.40
2011,07,27,14,47,20.40
2011,07,27,14,48,20.30
2011,07,27,14,49,20.00
2011,07,27,14,50,19.80
2011,07,27,14,51,19.80
2011,07,27,14,52,19.90
2011,07,27,14,53,20.00
2011,07,27,14,54,20.10
2011,07,27,14,55,20.20
2011,07,27,14,56,20.30
2011,07,27,14,57,20.40
2011,07,27,14,58,20.60
2011,07,27,14,59,20.80
2011,07,27,15,00,20.80
2011,07,27,15,01,20.90
2011,07,27,15,02,20.90
2011,07,27,15,03,20.90
2011,07,27,15,04,20.90
2011,07,27,15,05,20.80
2011,07,27,15,06,20.80
2011,07,27,15,07,20.80
2011,07,27,15,08,20.70
2011,07,27,15,09,20.70
2011,07,27,15,10,20.70
2011,07,27,15,11,20.70
2011,07,27,15,12,20.70
2011,07,27,15,13,20.60
2011,07,27,15,14,20.50
2011,07,27,15,15,20.40
2011,07,27,15,16,20.40
2011,07,27,15,17,20.40
2011,07,27,15,18,20.40
2011,07,27,15,19,20.50
2011,07,27,15,20,20.60
2011,07,27,15,21,20.60
2011,07,27,15,22,20.60
2011,07,27,15,23,20.60
2011,07,27,15,24,20.70
2011,07,27,15,25,20.80
2011,07,27,15,26,20.90
2011,07,27,15,27,20.90
2011,07,27,15,28,20.90
2011,07,27,15,29,20.90
2011,07,27,15,30,20.80
2011,07,27,15,31,20.70
2011,07,27,15,32,20.70
2011,07,27,15,33,20.70
2011,07,27,15,34,20.60
2011,07,27,15,35,20.60
2011,07,27,15,36,20.60
2011,07,27,15,37,20.60
2011,07,27,15,38,20.60
2011,07,27,15,39,20.60
2011,07,27,15,40,20.70
2011,07,27,15,41,20.70
2011,07,27,15,42,20.80
2011,07,27,15,43,20.80
2011,07,27,15,44,20.90
2011,07,27,15,45,21.00
2011,07,27,15,46,21.10
2011,07,27,15,47,21.20
2011,07,27,15,48,21.40
2011,07,27,15,49,21.50
2011,07,27,15,50,21.60
2011,07,27,15,51,21.80
2011,07,27,15,52,21.80
2011,07,27,15,53,21.80
2011,07,27,15,54,21.90
2011,07,27,15,55,21.90
2011,07,27,15,56,22.00
2011,07,27,15,57,22.00
2011,07,27,15,58,21.90
2011,07,27,15,59,21.80
2011,07,27,16,00,21.80
2011,07,27,16,01,21.80
2011,07,27,16,02,21.80
2011,07,27,16,03,21.80
2011,07,27,16,04,21.80
2011,07,27,16,05,21.80
2011,07,27,16,06,21.90
2011,07,27,16,07,21.90
2011,07,27,16,08,21.80
2011,07,27,16,09,21.90
2011,07,27,16,10,21.90
2011,07,27,16,11,22.00
2011,07,27,16,12,21.90
2011,07,27,16,13,21.80
2011,07,27,16,14,21.60
2011,07,27,16,15,21.50
2011,07,27,16,16,21.50
2011,07,27,16,17,21.60
2011,07,27,16,18,21.60
2011,07,27,16,19,21.70
2011,07,27,16,20,21.80
2011,07,27,16,21,21.90
2011,07,27,16,22,22.00
2011,07,27,16,23,22.10
2011,07,27,16,24,22.20
2011,07,27,16,25,22.20
2011,07,27,16,26,22.30
2011,07,27,16,27,22.20
2011,07,27,16,28,22.20
2011,07,27,16,29,22.10
2011,07,27,16,30,22.10
2011,07,27,16,31,22.10
2011,07,27,16,32,22.20
2011,07,27,16,33,22.20
2011,07,27,16,34,22.00
2011,07,27,16,35,21.90
2011,07,27,16,36,21.80
2011,07,27,16,37,21.70
2011,07,27,16,38,21.60
2011,07,27,16,39,21.60
2011,07,27,16,40,21.40
2011,07,27,16,41,21.30
2011,07,27,16,42,21.20
2011,07,27,16,43,21.00
2011,07,27,16,44,20.80
2011,07,27,16,45,20.70
2011,07,27,16,46,20.70
2011,07,27,16,47,20.80
2011,07,27,16,48,20.70
2011,07,27,16,49,20.70
2011,07,27,16,50,20.80
2011,07,27,16,51,20.80
2011,07,27,16,52,20.80
2011,07,27,16,53,20.80
2011,07,27,16,54,20.80
2011,07,27,16,55,20.80
2011,07,27,16,56,20.90
2011,07,27,16,57,21.00
2011,07,27,16,58,21.10
2011,07,27,16,59,21.30
2011,07,27,17,00,21.40
2011,07,27,17,01,21.60
2011,07,27,17,02,21.70
2011,07,27,17,03,21.70
2011,07,27,17,04,21.50
2011,07,27,17,05,21.50
2011,07,27,17,06,21.30
2011,07,27,17,07,21.20
2011,07,27,17,08,21.20
2011,07,27,17,09,21.00
2011,07,27,17,10,20.90
2011,07,27,17,11,20.90
2011,07,27,17,12,20.80
2011,07,27,17,13,20.70
2011,07,27,17,14,20.70
2011,07,27,17,15,20.70
2011,07,27,17,16,20.70
2011,07,27,17,17,20.60
2011,07,27,17,18,20.70
2011,07,27,17,19,20.70
2011,07,27,17,20,20.70
2011,07,27,17,21,20.70
2011,07,27,17,22,20.70